Home > Weather > Theni > Past weeks

Flag for India Weather for the Past 2 Weeks in Theni, Tamil Nadu, India

Now
84 °F

Haze.


Feels Like: 86 °F
Forecast: 68 / 94 °F
Wind: 3 mph from Northeast

Location: Coimbatore / Peelamedu

Current Time: Feb 7, 2016 at 8:55:01 PM

Latest Report: Feb 7, 2016 at 8:30 PM


Visibility: 3 mi

Pressure: 29.98 "Hg

Humidity: 51%

Dew point: 64 °F

Location of TheniLocation

Historic Weather in Theni — Graph

°F

Theni Temperature Yesterday

Maximum temperature yesterday: 90 °F (at 3:30 PM)
Minimum temperature yesterday: 70 °F (at 5:00 AM)
Average temperature yesterday: 80 °F

High & Low Weather Summary for the Past Weeks

 TemperatureHumidityPressure
High91 °F (Jan 28, 2:30 PM)94% (Jan 25, 5:30 AM)30.09 "Hg (Jan 25, 5:30 AM)
Low64 °F (Feb 2, 7:00 AM)15% (Feb 2, 3:30 PM)29.86 "Hg (Feb 6, 2:30 PM)
Average80 °F54%29.99 "Hg
* Reported Jan 23 7:30 PM — Feb 7 7:30 PM, Theni, Weather by CustomWeather, © 2016

Note: Actual official high and low records may vary slightly from our data, if they occured in-between our weather recording intervals... More about our weather records

Advertising

Theni Weather History for the Previous 24 Hours

 ConditionsComfort  
Time TempWeatherWind HumidityBarometerVisibility
7:30 PM
Sun, Feb 7
84 °FPassing clouds.No wind51%29.95 "Hg4 mi
7:00 PM88 °FPassing clouds.No wind43%29.92 "Hg4 mi
6:30 PM88 °FPassing clouds.No wind43%29.92 "Hg4 mi
6:00 PM88 °FPassing clouds.No wind40%29.92 "Hg4 mi
5:30 PM90 °FPassing clouds.2 mph38%29.92 "Hg4 mi
5:00 PM88 °FPassing clouds.3 mph43%29.89 "Hg5 mi
4:30 PM90 °FPassing clouds.No wind38%29.89 "Hg5 mi
4:00 PM90 °FPassing clouds.3 mph41%29.89 "Hg5 mi
3:30 PM90 °FPassing clouds.3 mph38%29.89 "Hg5 mi
3:00 PM90 °FPassing clouds.6 mph38%29.92 "Hg5 mi
2:30 PM88 °FPassing clouds.6 mph43%29.92 "Hg5 mi
2:00 PM86 °FPassing clouds.No wind46%29.95 "Hg5 mi
1:30 PM86 °FPassing clouds.7 mph46%29.95 "Hg5 mi
1:00 PM86 °FPassing clouds.5 mph46%29.98 "Hg4 mi
12:30 PM86 °FHaze.6 mph49%30.01 "Hg3 mi
12:00 PM84 °FHaze.No wind48%30.01 "Hg3 mi
11:30 AM84 °FHaze.7 mph51%30.04 "Hg3 mi
11:00 AM82 °FHaze.5 mph55%30.04 "Hg3 mi
10:30 AM82 °FHaze.2 mph51%30.07 "Hg3 mi
10:00 AM81 °FHaze.8 mph62%30.07 "Hg3 mi
9:00 AM77 °FFog.3 mph69%30.07 "Hg2 mi
8:30 AM75 °FFog.5 mph74%30.04 "Hg2 mi
8:00 AM75 °FFog.6 mph78%30.04 "Hg2 mi
7:30 AM75 °FFog.5 mph78%30.01 "Hg2 mi
7:00 AM75 °FFog.3 mph74%30.01 "Hg2 mi
6:30 AM75 °FFog.5 mph74%30.01 "Hg2 mi
6:00 AM75 °FFog.6 mph74%29.98 "Hg2 mi
5:30 AM75 °FFog.3 mph74%29.98 "Hg2 mi
4:30 AM73 °FHaze.6 mph83%29.95 "Hg2 mi
4:00 AM73 °FHaze.6 mph83%29.95 "Hg2 mi
3:30 AM75 °FHaze.5 mph78%29.95 "Hg3 mi
2:30 AM75 °FHaze.6 mph78%29.95 "Hg3 mi
11:30 PM
Sat, Feb 6
79 °FHaze.3 mph51%29.98 "Hg3 mi
10:30 PM77 °FHaze.7 mph57%30.01 "Hg3 mi
10:00 PM79 °FHaze.6 mph51%30.01 "Hg3 mi
9:30 PM79 °FHaze.No wind51%29.98 "Hg3 mi
9:00 PM81 °FHaze.No wind48%29.98 "Hg3 mi
8:30 PM81 °FHaze.3 mph48%29.95 "Hg3 mi
8:00 PM81 °FHaze.3 mph51%29.95 "Hg3 mi
Weather by CustomWeather, © 2016

See weather overviewHow to use our weather pages